Wind_Speed
38 37 37 37 36 35 35 34 34 33 32 32 32 31 31 31 30 30 29 29 28 28 28 28 27 26 26 25 24 25 25 25 25 25 25 24 24 24 24 23 23 23 22
39 38 38 39 38 37 36 35 35 35 34 33 34 33 33 32 32 32 32 31 30 30 30 29 29 29 28 28 28 27 27 26 26 26 26 26 26 26 26 26 25 25 24
42 40 40 40 40 39 38 37 36 35 35 35 35 35 35 35 34 34 34 33 32 32 31 31 30 31 31 31 30 29 29 28 28 28 28 28 28 27 28 27 26 26 26
43 43 42 41 41 40 40 39 39 38 37 36 36 36 36 36 36 36 35 35 34 34 34 33 33 33 33 32 32 31 30 31 30 30 30 30 29 29 29 29 28 28 27
44 44 44 44 42 42 41 41 41 40 40 39 38 38 39 38 38 38 37 37 36 36 36 35 35 35 35 34 34 34 33 33 33 32 32 32 31 30 30 30 30 30 30
45 46 46 46 45 44 43 43 42 42 42 42 41 41 41 41 41 40 39 39 38 38 38 38 37 38 38 37 37 36 36 35 35 34 34 34 34 33 33 33 33 32 32
46 47 47 47 47 47 46 45 44 44 43 44 44 43 43 43 43 43 42 41 40 40 40 40 39 39 39 39 39 39 38 38 38 37 37 36 36 36 35 35 35 35 34
48 49 49 49 49 48 48 47 46 46 45 46 46 46 45 45 45 45 44 43 42 42 42 42 41 41 41 40 41 41 40 40 40 39 39 38 38 38 37 37 37 37 37
48 49 50 50 50 50 50 49 49 48 47 48 48 48 47 47 46 46 46 45 45 44 43 43 43 42 42 42 42 42 42 42 42 41 41 41 41 40 40 40 39 39 39
49 50 51 51 52 52 52 52 51 51 50 50 50 50 50 50 50 48 47 46 46 46 46 45 45 45 44 44 44 44 44 44 44 44 44 43 43 43 43 43 42 42 41
49 50 52 52 52 52 53 53 53 53 52 52 52 51 51 51 52 51 49 48 48 48 48 47 47 46 46 46 45 46 46 46 46 45 45 45 44 44 44 44 43 44 44
49 50 52 53 54 54 54 54 54 54 54 54 54 54 52 52 52 52 51 50 50 49 49 49 48 47 47 47 47 47 46 47 47 47 47 47 46 45 45 45 45 45 45
49 50 51 52 53 54 54 54 54 54 55 54 54 55 54 54 53 53 53 52 51 50 50 49 49 49 49 49 49 49 49 48 48 48 48 49 48 48 47 47 46 46 46
50 50 51 52 53 54 55 55 54 54 54 54 54 55 55 55 54 53 53 53 53 53 52 50 50 50 51 51 50 50 50 49 49 49 49 49 49 49 48 48 47 47 47
50 50 50 51 53 54 55 55 55 55 56 55 55 55 55 55 56 55 54 54 55 54 53 51 51 51 51 52 52 51 50 50 50 50 50 50 50 50 49 49 49 49 49
49 49 50 51 52 54 54 55 55 55 56 56 55 55 56 56 56 56 55 54 55 55 54 53 53 52 52 52 53 53 52 52 52 51 51 51 51 50 50 49 49 49 49
51 50 50 50 51 52 53 54 55 55 55 55 56 55 55 56 56 56 56 56 55 55 54 53 53 54 54 53 54 54 54 53 53 52 52 52 52 51 51 51 50 50 50
51 51 51 51 51 51 52 53 54 55 55 55 56 55 55 55 56 56 56 56 57 56 56 55 54 54 55 55 55 55 55 55 55 54 54 53 53 53 52 52 52 52 52
51 51 51 51 52 52 53 53 53 54 55 56 56 56 56 56 57 57 58 58 58 58 58 57 56 56 56 56 56 56 56 56 56 55 55 55 54 53 53 53 53 53 53
51 52 52 52 53 54 54 54 54 54 55 56 56 56 56 57 57 58 59 59 59 60 59 58 58 57 57 57 57 57 57 56 56 56 55 54 55 54 53 53 53 54 54
50 51 52 52 52 53 54 54 55 55 55 55 55 56 57 57 58 58 59 59 59 60 59 59 58 58 58 58 57 56 56 55 56 56 54 54 54 53 53 53 53 54 54
48 50 50 50 51 52 52 53 54 55 55 55 55 56 57 58 58 58 59 59 58 59 59 58 58 58 57 58 58 57 56 56 55 55 55 54 54 53 54 54 54 54 54
46 47 48 50 51 51 51 52 53 54 54 55 55 55 56 57 58 59 59 58 57 57 57 57 57 57 56 57 57 57 56 56 55 54 55 54 54 54 55 55 55 55 55
46 47 47 48 49 51 52 52 53 54 54 54 55 55 55 55 55 56 56 56 56 57 57 56 56 55 56 56 57 57 56 56 55 55 56 55 55 55 55 55 55 55 55
44 45 45 46 47 48 49 49 50 50 51 51 51 51 51 51 51 51 52 52 53 53 55 56 54 54 55 55 56 56 56 55 55 55 56 55 55 55 55 54 54 54 54
42 43 44 45 46 46 47 48 48 48 48 48 48 48 48 48 48 49 50 50 51 52 53 53 53 53 54 54 54 55 56 56 56 55 55 56 55 55 54 53 54 54 54
Wind_Direction
248 248 249 249 250 251 251 252 253 252 253 253 252 251 248 248 248 251 253 254 255 256 258 259 261 263 262 263 263 264 264 264 265 266 266 267 268 269 270 269 270 272 273
248 248 249 250 250 250 251 252 253 253 253 252 251 251 250 250 250 252 253 254 255 256 257 259 261 263 263 264 266 267 268 267 267 267 268 268 268 269 269 270 270 271 272
248 248 249 250 250 250 250 251 252 252 251 250 251 251 251 251 251 253 254 255 255 256 257 259 261 263 264 265 266 267 267 267 268 268 268 268 268 269 270 270 270 271 272
250 250 250 250 249 248 249 250 251 252 252 250 250 251 252 251 252 253 254 255 255 256 258 260 262 264 264 265 266 266 266 266 267 268 267 267 268 269 268 268 270 269 271
250 251 251 250 249 249 250 251 251 253 253 252 252 252 252 252 253 254 255 256 257 258 259 261 263 264 264 265 265 265 265 265 266 266 267 267 267 267 267 268 269 269 270
249 250 251 251 251 251 251 251 252 254 253 253 253 253 252 253 254 254 255 256 258 258 260 261 263 265 265 264 265 266 265 265 265 265 266 266 266 267 267 267 268 269 269
249 250 251 251 251 251 251 251 252 254 254 253 253 253 253 254 255 255 256 257 258 259 260 262 264 265 265 265 265 265 265 265 264 265 265 266 267 267 266 267 267 268 269
250 251 251 252 252 252 252 252 252 254 252 252 253 253 255 255 256 257 257 257 260 261 262 263 263 264 265 266 266 266 265 264 265 265 265 265 265 265 266 266 266 267 269
253 253 252 252 252 252 253 253 253 254 254 254 254 255 256 256 256 257 258 259 260 261 263 263 264 265 265 266 266 266 265 265 265 265 265 265 265 265 265 265 266 268 270
255 254 254 254 253 253 253 253 254 255 256 256 257 257 258 258 258 257 258 259 261 262 263 264 265 265 265 265 265 265 266 265 265 264 265 265 266 266 265 265 266 268 270
256 255 255 255 255 255 254 255 255 256 257 257 258 258 258 259 260 260 259 259 261 262 264 264 266 266 265 265 265 266 266 265 265 265 266 266 266 267 267 267 267 269 270
255 256 255 254 254 255 255 255 256 257 257 257 258 258 258 259 260 260 260 260 260 262 264 265 265 265 266 265 265 265 266 265 264 265 265 265 266 267 268 268 269 270 270
255 256 256 255 255 255 256 256 256 257 257 258 259 258 258 259 260 260 260 261 261 261 263 264 264 265 265 265 264 264 265 264 263 264 265 266 266 267 268 268 269 270 270
255 257 257 257 256 256 256 256 256 257 257 257 258 258 258 259 259 260 261 262 262 262 263 263 263 264 265 264 265 265 265 263 262 263 265 266 267 268 268 269 269 270 270
256 257 257 257 257 257 256 256 256 257 257 257 257 258 258 259 259 261 261 262 262 262 262 262 262 262 263 263 264 265 265 264 264 265 264 266 267 268 268 267 268 269 270
257 257 258 257 257 258 258 257 257 257 258 257 257 258 258 258 259 260 260 261 261 262 262 262 261 261 261 263 264 264 264 264 265 265 265 265 266 266 267 267 268 269 270
258 258 258 258 258 258 258 257 257 257 257 258 259 259 258 258 259 260 260 260 260 261 261 262 262 261 261 262 263 263 264 264 264 265 265 265 265 265 266 266 267 268 269
259 259 259 259 259 259 259 258 259 258 258 259 260 260 259 259 259 260 260 260 260 261 261 262 262 263 262 263 263 263 263 263 263 264 265 265 265 266 265 265 266 267 268
261 261 261 261 261 261 260 259 260 259 259 259 259 260 260 260 260 260 260 260 260 261 262 262 262 263 263 262 263 263 263 262 263 264 264 265 265 265 265 266 267 268 268
261 261 261 261 261 261 260 260 261 260 259 259 259 259 260 260 261 261 260 261 261 261 262 263 263 263 263 262 263 264 263 262 263 263 263 264 265 265 266 266 266 268 268
261 261 261 261 261 260 260 260 260 259 259 259 259 259 260 260 261 261 262 261 261 261 261 263 263 263 263 263 263 263 263 263 263 263 263 263 264 264 265 266 266 268 268
263 262 260 260 260 260 260 261 261 260 259 259 259 260 261 261 262 262 262 262 261 260 261 262 263 263 263 263 263 263 263 263 263 263 263 263 263 263 264 265 267 268 269
264 262 260 260 259 259 261 262 262 261 260 259 260 261 262 263 262 262 261 261 261 261 261 262 263 263 263 263 263 263 263 264 263 263 264 264 264 265 266 266 267 268 269
265 263 262 261 259 260 261 262 263 262 261 260 260 261 261 261 261 261 260 260 260 261 261 261 262 263 263 263 262 262 263 264 263 264 264 264 265 265 266 267 268 268 269
266 265 264 262 262 262 263 264 265 264 262 261 260 260 261 261 260 259 260 260 259 260 260 260 261 262 263 263 263 262 262 263 263 263 264 265 265 265 266 266 267 268 269
268 266 264 264 264 264 264 265 266 265 263 261 260 260 261 260 259 260 260 260 260 260 260 260 261 262 263 263 262 262 262 263 263 262 262 264 265 265 265 265 267 268 269
Height
5778 5780 5782 5785 5787 5789 5791 5793 5794 5796 5798 5800 5801 5803 5805 5807 5808 5810 5811 5812 5813 5814 5815 5816 5817 5817 5818 5819 5819 5820 5821 5822 5822 5823 5823 5824 5824 5825 5825 5825 5825 5826 5826
5770 5772 5775 5777 5779 5781 5783 5785 5787 5789 5791 5792 5794 5796 5798 5800 5801 5803 5805 5806 5807 5808 5809 5810 5810 5811 5812 5813 5814 5814 5815 5816 5816 5817 5818 5818 5819 5819 5820 5820 5820 5820 5820
5761 5763 5766 5769 5771 5773 5775 5777 5779 5781 5783 5785 5787 5789 5791 5793 5794 5796 5797 5799 5800 5801 5802 5803 5804 5805 5806 5807 5807 5808 5809 5809 5810 5811 5812 5812 5813 5813 5813 5814 5814 5814 5814
5751 5754 5757 5760 5762 5764 5766 5768 5771 5772 5774 5776 5779 5781 5782 5785 5787 5788 5790 5791 5792 5793 5795 5796 5797 5798 5798 5799 5800 5801 5802 5802 5803 5804 5804 5805 5805 5806 5806 5807 5807 5807 5808
5741 5744 5747 5750 5753 5755 5757 5759 5762 5764 5766 5768 5770 5772 5774 5776 5778 5780 5781 5783 5784 5785 5787 5788 5789 5790 5790 5791 5792 5793 5794 5795 5795 5796 5797 5797 5798 5798 5799 5799 5800 5800 5801
5731 5734 5737 5740 5743 5745 5748 5750 5752 5754 5756 5759 5761 5763 5765 5767 5769 5771 5772 5774 5775 5777 5778 5779 5780 5781 5782 5783 5783 5784 5785 5786 5787 5787 5788 5789 5789 5790 5791 5791 5792 5792 5793
5721 5723 5726 5729 5732 5735 5737 5740 5742 5745 5746 5749 5751 5753 5755 5757 5760 5761 5763 5765 5766 5768 5769 5770 5771 5772 5773 5773 5774 5775 5776 5776 5777 5778 5779 5779 5780 5781 5782 5783 5783 5784 5784
5709 5712 5715 5718 5721 5724 5726 5729 5732 5734 5736 5738 5741 5742 5745 5747 5749 5751 5753 5755 5756 5758 5759 5760 5761 5762 5763 5763 5764 5764 5765 5766 5767 5767 5768 5769 5770 5771 5772 5773 5774 5774 5775
5697 5700 5703 5706 5709 5712 5715 5717 5720 5723 5725 5727 5729 5731 5734 5736 5738 5740 5742 5744 5746 5747 5748 5749 5750 5751 5752 5752 5753 5753 5754 5755 5756 5757 5758 5759 5759 5761 5762 5763 5764 5764 5765
5685 5687 5690 5693 5696 5699 5702 5705 5708 5710 5713 5715 5717 5719 5722 5725 5727 5729 5732 5733 5734 5736 5737 5738 5739 5739 5740 5741 5741 5742 5742 5743 5744 5746 5747 5748 5749 5750 5751 5752 5753 5754 5754
5672 5675 5678 5680 5683 5686 5689 5692 5695 5697 5700 5703 5704 5707 5709 5711 5714 5717 5720 5722 5723 5724 5725 5726 5727 5728 5728 5729 5730 5730 5731 5731 5733 5734 5736 5737 5737 5739 5740 5741 5742 5742 5743
5660 5662 5664 5667 5670 5673 5676 5679 5681 5684 5687 5689 5691 5693 5696 5698 5701 5703 5706 5709 5711 5712 5713 5714 5715 5716 5716 5717 5718 5718 5718 5719 5721 5722 5724 5725 5726 5727 5728 5729 5730 5730 5731
5647 5649 5651 5653 5656 5659 5662 5665 5667 5670 5673 5675 5677 5679 5682 5685 5687 5689 5692 5694 5697 5699 5700 5701 5702 5703 5704 5705 5705 5706 5706 5707 5709 5710 5712 5713 5714 5715 5716 5717 5718 5718 5719
5634 5636 5638 5640 5642 5645 5647 5650 5653 5656 5658 5661 5663 5665 5668 5671 5673 5675 5678 5680 5682 5685 5686 5688 5689 5690 5691 5692 5692 5693 5694 5695 5696 5698 5699 5700 5701 5702 5703 5704 5705 5706 5706
5620 5623 5625 5627 5628 5630 5633 5636 5639 5641 5644 5646 5649 5651 5654 5656 5658 5661 5663 5665 5667 5670 5673 5674 5675 5676 5677 5678 5679 5680 5682 5682 5684 5685 5686 5687 5688 5689 5690 5691 5692 5692 5693
5606 5609 5611 5613 5614 5616 5618 5621 5624 5627 5629 5632 5634 5636 5639 5641 5643 5646 5648 5650 5652 5654 5657 5661 5661 5663 5663 5664 5665 5666 5668 5669 5670 5671 5672 5673 5674 5675 5676 5677 5678 5679 5680
5592 5594 5596 5598 5600 5602 5604 5606 5609 5612 5614 5617 5619 5621 5624 5626 5628 5630 5632 5634 5636 5638 5641 5645 5646 5647 5648 5650 5651 5652 5653 5654 5656 5657 5658 5659 5660 5661 5662 5663 5664 5665 5666
5578 5580 5582 5584 5586 5587 5589 5591 5594 5597 5599 5602 5604 5606 5608 5610 5613 5615 5617 5619 5621 5623 5625 5628 5631 5632 5633 5634 5635 5637 5638 5639 5641 5642 5643 5644 5645 5646 5648 5649 5649 5650 5651
5563 5565 5567 5569 5571 5572 5574 5576 5578 5581 5583 5586 5588 5590 5593 5595 5597 5599 5601 5603 5605 5607 5608 5611 5615 5617 5618 5618 5619 5622 5623 5624 5625 5626 5627 5629 5630 5631 5632 5633 5634 5635 5636
5549 5551 5552 5554 5556 5557 5559 5561 5563 5565 5567 5570 5572 5574 5576 5579 5581 5583 5585 5587 5589 5591 5592 5595 5598 5600 5601 5602 5603 5605 5607 5608 5610 5611 5612 5613 5615 5616 5617 5618 5619 5619 5620
5534 5536 5537 5539 5540 5542 5543 5545 5547 5549 5551 5554 5556 5558 5560 5562 5564 5566 5568 5570 5572 5574 5576 5578 5581 5583 5585 5586 5588 5589 5590 5592 5594 5595 5596 5598 5600 5601 5601 5602 5603 5603 5604
5520 5521 5522 5524 5525 5527 5528 5530 5531 5533 5536 5538 5540 5542 5544 5546 5547 5549 5551 5553 5555 5558 5560 5562 5564 5567 5569 5570 5571 5573 5574 5577 5580 5582 5581 5583 5583 5585 5586 5587 5588 5588 5588
5506 5507 5508 5509 5511 5512 5513 5514 5515 5517 5520 5522 5524 5526 5527 5529 5530 5532 5534 5536 5538 5540 5543 5546 5548 5550 5552 5554 5555 5557 5558 5560 5563 5564 5565 5567 5568 5569 5570 5571 5571 5572 5573
5492 5493 5494 5495 5496 5498 5499 5499 5500 5502 5504 5506 5508 5509 5511 5513 5514 5515 5518 5520 5522 5525 5527 5530 5533 5535 5535 5536 5538 5540 5542 5544 5546 5547 5548 5551 5553 5554 5555 5555 5556 5556 5556
5479 5479 5480 5481 5482 5483 5484 5485 5486 5487 5488 5490 5492 5493 5495 5497 5498 5500 5502 5505 5507 5509 5510 5513 5516 5517 5519 5520 5521 5522 5525 5527 5529 5531 5532 5534 5537 5538 5539 5540 5540 5540 5540
5466 5466 5467 5467 5468 5469 5470 5471 5471 5472 5474 5476 5477 5479 5480 5482 5483 5484 5487 5489 5492 5494 5496 5498 5499 5501 5502 5503 5504 5506 5508 5510 5512 5515 5516 5518 5519 5520 5523 5525 5524 5524 5524